Location: Dötzum
(52.0808°N, 9.8063°E)
Time: 06:30:41
(UTC+00:00)

USA 229 - Pass Details

Date: 27 May 2022
Orbit: 938 x 1274 km, 63.4° (Epoch: 24 May)

Event Time Altitude Azimuth Distance (km) Brightness Sun altitude
Rises 00:15:48 0° 313° (NW) 3,963 7.1 -15.6°
Reaches altitude 10° 00:18:32 10° 308° (NW) 3,049 6.4 -15.5°
Maximum altitude 00:25:23 44° 239° (WSW) 1,623 4.3 -15.2°
Enters shadow 00:30:48 18° 177° (S) 2,657 5.2 -14.9°
